• în România
  • Lista ţărilor
  • Pe 7 zile
  • Temperatura apei
  • Hartă satelitară
  • Meteo pe hartă
  • Widget-uri
  • user-avatar
    Intrare

    Meteo pe oră la Borşa

    Astăzi, 19 Octombrie, Vineri

    Timp Temperatura Precipitaţii Vânt Presiune Umiditate
    00:00 +10°C° 0 mm 1 m/s 684 mmHg 74%
    01:00 +10°C° 0 mm 1 m/s 684 mmHg 75%
    02:00 +10°C° 0 mm 1 m/s 684 mmHg 77%
    03:00 +10°C° 0 mm 1 m/s 683 mmHg 78%
    04:00 +9°C° 0 mm 1 m/s 683 mmHg 79%
    05:00 +8°C° 0 mm 0 m/s 683 mmHg 80%
    06:00 +9°C° 0 mm 0 m/s 684 mmHg 78%
    07:00 +10°C° 0 mm 0 m/s 684 mmHg 76%
    08:00 +10°C° 0 mm 0 m/s 684 mmHg 74%
    09:00 +13°C° 0.1 mm 1 m/s 684 mmHg 69%
    10:00 +14°C° 0.1 mm 1 m/s 685 mmHg 65%
    11:00 +15°C° 0.1 mm 1 m/s 685 mmHg 61%
    12:00 +16°C° 0.1 mm 1 m/s 685 mmHg 59%
    13:00 +16°C° 0.1 mm 1 m/s 685 mmHg 58%
    14:00 +18°C° 0.1 mm 1 m/s 685 mmHg 56%
    15:00 +16°C° 0.2 mm 1 m/s 685 mmHg 62%
    16:00 +14°C° 0.2 mm 1 m/s 685 mmHg 68%
    17:00 +13°C° 0.2 mm 1 m/s 684 mmHg 74%
    18:00 +12°C° 0.3 mm 1 m/s 684 mmHg 79%
    19:00 +11°C° 0.3 mm 1 m/s 684 mmHg 83%
    20:00 +10°C° 0.3 mm 1 m/s 684 mmHg 87%
    21:00 +10°C° 0.1 mm 1 m/s 684 mmHg 88%
    22:00 +9°C° 0.1 mm 1 m/s 684 mmHg 89%
    23:00 +9°C° 0.1 mm 1 m/s 685 mmHg 91%

    Mâine, 20 Octombrie, Sâmbătă

    Timp Temperatura Precipitaţii Vânt Presiune Umiditate
    00:00 +8°C° 0 mm 1 m/s 685 mmHg 91%
    01:00 +8°C° 0 mm 1 m/s 685 mmHg 91%
    02:00 +8°C° 0 mm 1 m/s 685 mmHg 91%
    03:00 +8°C° 0 mm 1 m/s 685 mmHg 91%
    04:00 +8°C° 0 mm 1 m/s 685 mmHg 91%
    05:00 +7°C° 0 mm 1 m/s 685 mmHg 91%
    06:00 +8°C° 0 mm 1 m/s 685 mmHg 90%
    07:00 +8°C° 0 mm 1 m/s 685 mmHg 88%
    08:00 +9°C° 0 mm 1 m/s 686 mmHg 87%
    09:00 +11°C° 0 mm 1 m/s 686 mmHg 81%
    10:00 +13°C° 0 mm 1 m/s 687 mmHg 74%
    11:00 +14°C° 0 mm 1 m/s 687 mmHg 67%
    12:00 +14°C° 0 mm 1 m/s 687 mmHg 66%
    13:00 +15°C° 0 mm 1 m/s 687 mmHg 65%
    14:00 +15°C° 0 mm 1 m/s 687 mmHg 64%
    15:00 +14°C° 0 mm 1 m/s 686 mmHg 68%
    16:00 +13°C° 0 mm 1 m/s 686 mmHg 72%
    17:00 +12°C° 0 mm 1 m/s 686 mmHg 76%
    18:00 +11°C° 0 mm 1 m/s 686 mmHg 81%
    19:00 +10°C° 0 mm 1 m/s 686 mmHg 85%
    20:00 +9°C° 0 mm 1 m/s 686 mmHg 90%
    21:00 +9°C° 0 mm 1 m/s 686 mmHg 91%
    22:00 +8°C° 0 mm 1 m/s 686 mmHg 92%
    23:00 +8°C° 0 mm 1 m/s 686 mmHg 93%

    Poimâine, 21 Octombrie, Duminică

    Timp Temperatura Precipitaţii Vânt Presiune Umiditate
    00:00 +8°C° 0.1 mm 1 m/s 686 mmHg 92%
    01:00 +8°C° 0.1 mm 1 m/s 686 mmHg 91%
    02:00 +8°C° 0.1 mm 1 m/s 686 mmHg 91%
    03:00 +8°C° 0.2 mm 1 m/s 685 mmHg 91%
    04:00 +8°C° 0.2 mm 1 m/s 685 mmHg 91%
    05:00 +8°C° 0.2 mm 1 m/s 685 mmHg 91%
    06:00 +8°C° 0.2 mm 1 m/s 685 mmHg 91%
    07:00 +7°C° 0.2 mm 1 m/s 685 mmHg 90%
    08:00 +7°C° 0.2 mm 1 m/s 685 mmHg 90%
    09:00 +7°C° 0.1 mm 1 m/s 685 mmHg 87%
    10:00 +8°C° 0.1 mm 1 m/s 685 mmHg 84%
    11:00 +8°C° 0.1 mm 1 m/s 685 mmHg 81%
    12:00 +7°C° 0.3 mm 2 m/s 685 mmHg 81%
    13:00 +7°C° 0.3 mm 2 m/s 685 mmHg 81%
    14:00 +7°C° 0.3 mm 2 m/s 684 mmHg 81%
    15:00 +6°C° 0.7 mm 2 m/s 684 mmHg 83%
    16:00 +6°C° 0.7 mm 2 m/s 684 mmHg 85%
    17:00 +6°C° 0.7 mm 1 m/s 684 mmHg 86%
    18:00 +5°C° 0.5 mm 2 m/s 684 mmHg 87%
    19:00 +4°C° 0.5 mm 2 m/s 684 mmHg 87%
    20:00 +4°C° 0.5 mm 2 m/s 684 mmHg 87%
    21:00 +4°C° 0.1 mm 2 m/s 684 mmHg 88%
    22:00 +4°C° 0.1 mm 2 m/s 684 mmHg 88%
    23:00 +3°C° 0.1 mm 2 m/s 684 mmHg 88%

    22 Octombrie, Luni

    Timp Temperatura Precipitaţii Vânt Presiune Umiditate
    00:00 +3°C° 0 mm 2 m/s 684 mmHg 89%
    01:00 +2°C° 0 mm 2 m/s 684 mmHg 91%
    02:00 +1°C° 0 mm 2 m/s 684 mmHg 92%
    03:00 +1°C° 0 mm 2 m/s 684 mmHg 92%
    04:00 +1°C° 0 mm 2 m/s 684 mmHg 92%
    05:00 +1°C° 0 mm 2 m/s 684 mmHg 91%
    06:00 +1°C° 0 mm 2 m/s 684 mmHg 90%
    07:00 +2°C° 0 mm 2 m/s 685 mmHg 88%
    08:00 +2°C° 0 mm 2 m/s 685 mmHg 87%
    09:00 +4°C° 0 mm 2 m/s 685 mmHg 79%
    10:00 +6°C° 0 mm 2 m/s 686 mmHg 72%
    11:00 +9°C° 0 mm 1 m/s 686 mmHg 64%
    12:00 +10°C° 0 mm 1 m/s 686 mmHg 60%
    13:00 +10°C° 0 mm 1 m/s 685 mmHg 57%
    14:00 +11°C° 0 mm 1 m/s 685 mmHg 53%
    15:00 +10°C° 0 mm 1 m/s 685 mmHg 59%
    16:00 +9°C° 0 mm 1 m/s 684 mmHg 65%
    17:00 +7°C° 0 mm 1 m/s 684 mmHg 71%
    18:00 +6°C° 0 mm 1 m/s 684 mmHg 75%
    19:00 +5°C° 0 mm 1 m/s 683 mmHg 80%
    20:00 +4°C° 0 mm 1 m/s 683 mmHg 84%
    21:00 +3°C° 0 mm 1 m/s 683 mmHg 84%
    22:00 +3°C° 0 mm 1 m/s 683 mmHg 84%
    23:00 +3°C° 0 mm 1 m/s 683 mmHg 85%

    23 Octombrie, Marţi

    Timp Temperatura Precipitaţii Vânt Presiune Umiditate
    00:00 +2°C° 0 mm 1 m/s 683 mmHg 84%
    01:00 +2°C° 0 mm 1 m/s 682 mmHg 84%
    02:00 +2°C° 0 mm 1 m/s 682 mmHg 83%
    03:00 +2°C° 0 mm 1 m/s 682 mmHg 83%
    04:00 +2°C° 0 mm 1 m/s 682 mmHg 82%
    05:00 +1°C° 0 mm 0 m/s 681 mmHg 82%
    06:00 +1°C° 0 mm 0 m/s 682 mmHg 79%
    07:00 +2°C° 0 mm 0 m/s 682 mmHg 77%
    08:00 +3°C° 0 mm 0 m/s 682 mmHg 74%
    09:00 +5°C° 0 mm 0 m/s 682 mmHg 67%
    10:00 +8°C° 0 mm 1 m/s 682 mmHg 61%
    11:00 +11°C° 0 mm 1 m/s 683 mmHg 54%
    12:00 +11°C° 0 mm 1 m/s 682 mmHg 54%
    13:00 +11°C° 0 mm 1 m/s 682 mmHg 54%
    14:00 +11°C° 0 mm 1 m/s 682 mmHg 53%
    15:00 +10°C° 0 mm 1 m/s 681 mmHg 60%
    16:00 +9°C° 0 mm 1 m/s 681 mmHg 66%
    17:00 +7°C° 0 mm 1 m/s 681 mmHg 73%
    18:00 +6°C° 0 mm 1 m/s 681 mmHg 77%
    19:00 +6°C° 0 mm 1 m/s 681 mmHg 81%
    20:00 +5°C° 0 mm 1 m/s 681 mmHg 86%
    21:00 +4°C° 0 mm 1 m/s 681 mmHg 87%
    22:00 +4°C° 0 mm 1 m/s 681 mmHg 89%
    23:00 +4°C° 0 mm 1 m/s 681 mmHg 91%

    24 Octombrie, Miercuri

    Timp Temperatura Precipitaţii Vânt Presiune Umiditate
    00:00 +2°C° 0 mm 0 m/s 681 mmHg 92%
    01:00 +2°C° 0 mm 0 m/s 681 mmHg 93%
    02:00 +1°C° 0 mm 0 m/s 680 mmHg 94%
    03:00 +1°C° 0 mm 0 m/s 680 mmHg 94%
    04:00 +2°C° 0 mm 1 m/s 680 mmHg 95%
    05:00 +1°C° 0 mm 1 m/s 680 mmHg 96%
    06:00 +2°C° 0 mm 1 m/s 680 mmHg 94%
    07:00 +2°C° 0 mm 1 m/s 679 mmHg 92%
    08:00 +2°C° 0 mm 1 m/s 679 mmHg 91%
    09:00 +2°C° 0 mm 2 m/s 679 mmHg 80%
    10:00 +3°C° 0 mm 3 m/s 678 mmHg 69%
    11:00 +4°C° 0 mm 3 m/s 678 mmHg 58%
    12:00 +4°C° 0 mm 4 m/s 677 mmHg 59%
    13:00 +5°C° 0 mm 5 m/s 676 mmHg 59%
    14:00 +4°C° 0 mm 6 m/s 675 mmHg 60%
    15:00 +3°C° 0.4 mm 6 m/s 675 mmHg 67%
    16:00 +3°C° 0.4 mm 6 m/s 674 mmHg 73%
    17:00 +2°C° 0.4 mm 6 m/s 673 mmHg 80%
    18:00 +2°C° 1 mm 5 m/s 673 mmHg 83%
    19:00 +2°C° 1 mm 5 m/s 672 mmHg 85%
    20:00 +2°C° 1 mm 5 m/s 672 mmHg 88%
    21:00 +2°C° 1.1 mm 5 m/s 672 mmHg 89%
    22:00 +2°C° 1.1 mm 5 m/s 672 mmHg 90%
    23:00 +2°C° 1.1 mm 5 m/s 672 mmHg 92%
    Arată mai mult